Regional Weather Roundup
Issued by NWS

Home | Current Version | Previous Version | Graphics & Text | Print | Product List | Glossary On
Versions: 1 2 3 4 5 6 7 8 9 10 11 12 13 14 15 16 17 18 19 20 21 22 23 24 25 26 27 28 29 30 31 32 33 34 35 36 37 38 39 40 41 42 43 44 45 46 47 48 49 50
000
ASUS45 KTFX 021210
RWRMT
MONTANA REGIONAL WEATHER ROUNDUP
NATIONAL WEATHER SERVICE GREAT FALLS MT
600 AM MDT WED SEP 02 2015

NOTE: "FAIR" INDICATES FEW OR NO CLOUDS BELOW 12000 FEET WITH NO
SIGNIFICANT WEATHER AND/OR OBSTRUCTIONS TO VISIBILITY.

MTZ001>007-043-021300-
WEST OF THE DIVIDE

CITY           SKY/WX    TMP DP  RH WIND       PRES   REMARKS
KALISPELL      CLOUDY    52  40  63 CALM      29.74S
MISSOULA       CLOUDY    51  38  60 CALM      29.78S
BUTTE          PTCLDY    41  34  76 SE6       29.88S
MULLAN PASS    CLOUDY    46  35  65 VRB3      29.87F
DEER LODGE       N/A     45  36  70 CALM      29.85F
EUREKA           N/A     54  41  62 CALM      29.73F
HAMILTON         N/A     50  41  71 W1        29.76F
LIBBY            N/A     48  39  71 N3        29.73F
PLAINS           N/A     51  38  61 CALM      29.79S
$$

MTZ008-052>055-021300-
SOUTHWEST MONTANA

CITY           SKY/WX    TMP DP  RH WIND       PRES   REMARKS
BOZEMAN        PTCLDY    48  38  68 E3        29.81S
DILLON         CLEAR     56  26  31 S7        29.84F
W YELLOWSTONE  PTCLDY    37  36  93 CALM      30.03S
$$

MTZ009-010-012-014-046-048-049-054-021300-
EAST SLOPES AND CENTRAL MONTANA

CITY           SKY/WX    TMP DP  RH WIND       PRES   REMARKS
CUT BANK       CLOUDY    56  31  38 SW6       29.71F
GREAT FALLS    PTCLDY    53  33  46 SW7       29.72S
MALMSTROM AFB  MOCLDY    50  35  55 SW6       29.72S
HELENA         PTCLDY    54  36  50 CALM      29.77F
CONRAD           N/A     46  36  68 SE2       29.76F
$$

MTZ011-013-016-021-045-047-050-051-021300-
NORTH CENTRAL MONTANA

CITY           SKY/WX    TMP DP  RH WIND       PRES   REMARKS
HAVRE          CLEAR     49  38  65 CALM      29.66S
LEWISTOWN      CLEAR     57  36  45 N6        29.76S
N BAR RANCH      N/A     59  34  38 NW8       29.81S
CHINOOK          N/A     54  39  58 E5        29.65F
FORT BENTON      N/A     52  34  50 SW6       29.70S
$$

MTZ017>020-022>027-061-062-021300-
NORTHEAST MONTANA

CITY           SKY/WX    TMP DP  RH WIND       PRES   REMARKS
GLASGOW        CLEAR     60  40  47 E16       29.67F
JORDAN           N/A     49  36  61 CALM      29.69F
SIDNEY         CLEAR     52  43  71 CALM      29.75S
WOLF POINT     CLEAR     52  43  71 E6        29.72F
MALTA            N/A     53  43  69 CALM      29.66F
PLENTYWOOD       N/A     63  45  51 SE8       29.77R
POPLAR           N/A     52  43  71 N5        29.73F
$$

MTZ028>42-056>058-021300-
SOUTHCENTRAL AND SOUTHEAST MONTANA

CITY           SKY/WX    TMP DP  RH WIND       PRES   REMARKS
BAKER          CLEAR     57  52  83 SE7       29.80S
BILLINGS       MOCLDY    58  37  45 SW10      29.78R
LIVINGSTON     CLEAR     57  32  38 CALM      29.81F
MILES CITY     CLEAR     61  44  53 E5        29.72F
FORSYTH          N/A     57  37  47 CALM      29.72R
LAUREL           N/A     55  33  43 CALM      29.79R
$$

REGIONAL REPORTS...DAKOTAS

CITY           SKY/WX    TMP DP  RH WIND       PRES   REMARKS
WILLISTON      CLEAR     56  45  66 NE3       29.77S
MINOT          PTCLDY    61  59  93 S3        29.78R FOG
DICKINSON      CLEAR     56  51  84 E6        29.79S
BISMARCK       CLEAR     61  60  97 NE3       29.80S FOG
GRAND FORKS    FOG       66  66 100 S9        29.81F VSB 1/4
FARGO          CLEAR     69  64  84 SE13      29.84R
BUFFALO SD       N/A     63  54  72 CALM      29.76S
RAPID CITY     MOCLDY    58  48  69 NW6       29.84F
$$

REGIONAL REPORTS...WYOMING/IDAHO/WASHINGTON

CITY           SKY/WX    TMP DP  RH WIND       PRES   REMARKS
GILLETTE       MOCLDY    71  42  35 SW20G29   29.88S
SHERIDAN       CLEAR     61  39  44 SW9       29.84F
BUFFALO WY     CLEAR     72  35  25 W14       29.94S
CODY           MOCLDY    61  34  36 NE7       29.92S
YELLOWSTONE LA   N/A     38  37  97 NW3       30.14F
IDAHO FALLS    PTCLDY    61  40  45 SW9       29.92R
SALMON         MOCLDY    46  34  61 CALM      29.81S
BOISE          MOCLDY    63  37  38 E3        29.82R
SPOKANE        CLOUDY    59  46  62 S8        29.75S
$$

REGIONAL REPORTS...ALBERTA

CITY           SKY/WX    TMP DP  RH WIND       PRES   REMARKS
EDMONTON       CLEAR     50  41  71 E9        29.59S
CALGARY        MOCLDY    52  37  58 S6        29.61S
LETHBRIDGE     MOCLDY    52  34  50 W12       29.65F
MEDICINE HAT   PTCLDY    54  37  54 S2        29.64F
WATERTON GATE    N/A     57  30  35 SW9         N/A
CARDSTON         N/A     57  28  33 SW7         N/A
MILK RIVER       N/A     59  32  36 S9          N/A
ONEFOUR          N/A     54  28  37 N9          N/A
$$

REGIONAL REPORTS...SASKATCHEWAN

CITY           SKY/WX    TMP DP  RH WIND       PRES   REMARKS
SWIFT CURRENT  MOCLDY    64  36  34 S9        29.69F
REGINA         PTCLDY    52  45  76 E12       29.75F
SASKATOON      MOCLDY    59  45  58 E16       29.72F
CYPRESS HILLS    N/A     57  27  30 S5          N/A
VAL MARIE        N/A     52  39  62 N2          N/A
ROCKGLEN         N/A     57  39  51 E7          N/A
$$


USA.gov is the U.S. government's official web portal to all federal, state and local government web resources and services.